"Period start","avg(HW err(1)/warn(2) (#))","avg(Visibility (m))","avg(Weather code (#))","avg(Precip intensity (mm/h))","min(HW err(1)/warn(2) (#))","max(HW err(1)/warn(2) (#))","std(HW err(1)/warn(2) (#))","med(HW err(1)/warn(2) (#))","min(Visibility (m))","max(Visibility (m))","std(Visibility (m))","med(Visibility (m))","min(Weather code (#))","max(Weather code (#))","std(Weather code (#))","med(Weather code (#))","min(Precip intensity (mm/h))","max(Precip intensity (mm/h))","std(Precip intensity (mm/h))","med(Precip intensity (mm/h))"
2016-08-18 00:00:00,2,45170,0,0.00,2,2,0,2,36213,50000,4489,46220,0,0,0,0,0.00,0.00,0.00,0.00
2016-08-18 00:10:00,2,37634,0,0.00,2,2,0,2,23564,50000,7755,36980,0,0,0,0,0.00,0.00,0.00,0.00
2016-08-18 00:20:00,2,47431,0,0.00,0,2,1,2,38097,50000,3816,49588,0,0,0,0,0.00,0.00,0.00,0.00
2016-08-18 00:30:00,2,25055,17,0.20,2,2,0,2,12693,50000,11271,23728,0,61,27,0,0.00,1.30,0.43,0.00
2016-08-18 00:40:00,2,38481,0,0.00,2,2,0,2,12482,50000,14237,47302,0,0,0,0,0.00,0.00,0.00,0.00
2016-08-18 00:50:00,2,40185,0,0.00,2,2,0,2,23752,50000,7852,42767,0,0,0,0,0.00,0.00,0.00,0.00
2016-08-18 01:00:00,2,43140,0,0.00,2,2,0,2,32698,50000,5983,43380,0,0,0,0,0.00,0.00,0.00,0.00
2016-08-18 01:10:00,2,45340,0,0.00,2,2,0,2,37189,50000,4379,46582,0,0,0,0,0.00,0.00,0.00,0.00
2016-08-18 01:20:00,2,40827,0,0.00,2,2,0,2,31426,50000,5871,39086,0,0,0,0,0.00,0.00,0.00,0.00
2016-08-18 01:30:00,2,49334,0,0.00,2,2,0,2,48104,50000,754,49680,0,0,0,0,0.00,0.00,0.00,0.00
2016-08-18 01:40:00,2,47383,0,0.00,2,2,0,2,37465,50000,4208,49510,0,0,0,0,0.00,0.00,0.00,0.00
2016-08-18 01:50:00,2,42326,0,0.00,2,2,0,2,28534,50000,9226,49351,0,0,0,0,0.00,0.00,0.00,0.00
2016-08-18 02:00:00,2,43409,0,0.00,2,2,0,2,23723,50000,7993,46556,0,0,0,0,0.00,0.00,0.00,0.00
2016-08-18 02:10:00,2,41870,0,0.00,2,2,0,2,27582,47615,5826,43204,0,0,0,0,0.00,0.00,0.00,0.00
2016-08-18 02:20:00,2,41970,0,0.00,2,2,0,2,23677,50000,10235,49313,0,0,0,0,0.00,0.00,0.00,0.00
2016-08-18 02:30:00,2,37654,0,0.00,2,2,0,2,29404,45954,6064,36020,0,0,0,0,0.00,0.00,0.00,0.00
2016-08-18 02:40:00,2,40651,0,0.00,2,2,0,2,24850,50000,9326,43473,0,0,0,0,0.00,0.00,0.00,0.00
2016-08-18 02:50:00,2,44260,0,0.00,2,2,0,2,36539,48114,3626,45708,0,0,0,0,0.00,0.00,0.00,0.00
2016-08-18 03:00:00,2,41577,0,0.00,2,2,0,2,31493,50000,6466,40986,0,0,0,0,0.00,0.00,0.00,0.00
2016-08-18 03:10:00,2,36734,0,0.00,2,2,0,2,22175,50000,10090,37356,0,0,0,0,0.00,0.00,0.00,0.00
2016-08-18 03:20:00,2,42849,0,0.00,2,2,0,2,37212,49319,4122,42214,0,0,0,0,0.00,0.00,0.00,0.00
2016-08-18 03:30:00,1,49581,0,0.00,0,2,1,0,45874,50000,1236,50000,0,0,0,0,0.00,0.00,0.00,0.00
2016-08-18 03:40:00,2,45609,0,0.00,0,2,1,2,34651,50000,5602,48464,0,0,0,0,0.00,0.00,0.00,0.00
2016-08-18 03:50:00,1,43569,0,0.00,0,2,1,2,36803,50000,5048,43252,0,0,0,0,0.00,0.00,0.00,0.00
2016-08-18 04:00:00,1,46564,0,0.00,0,2,1,2,37013,50000,3802,47824,0,0,0,0,0.00,0.00,0.00,0.00
2016-08-18 04:10:00,1,47377,0,0.00,0,2,1,2,42219,50000,2480,46900,0,0,0,0,0.00,0.00,0.00,0.00
2016-08-18 04:20:00,1,45928,0,0.00,0,2,1,0,28149,50000,7234,50000,0,0,0,0,0.00,0.00,0.00,0.00
2016-08-18 04:30:00,0,48538,0,0.00,0,0,0,0,40640,50000,2757,50000,0,0,0,0,0.00,0.00,0.00,0.00
2016-08-18 04:40:00,0,47887,0,0.00,0,2,1,0,38986,50000,3380,49542,0,0,0,0,0.00,0.00,0.00,0.00
2016-08-18 04:50:00,0,46046,0,0.00,0,2,1,0,41298,50000,3357,47164,0,0,0,0,0.00,0.00,0.00,0.00
2016-08-18 05:00:00,1,48014,0,0.00,0,2,1,2,41065,50000,2863,49599,0,0,0,0,0.00,0.00,0.00,0.00
2016-08-18 05:10:00,1,48741,0,0.00,0,2,1,0,44529,50000,1944,50000,0,0,0,0,0.00,0.00,0.00,0.00
2016-08-18 05:20:00,1,49038,0,0.00,0,2,1,1,41990,50000,2379,50000,0,0,0,0,0.00,0.00,0.00,0.00
2016-08-18 05:30:00,2,46330,0,0.00,0,2,1,2,39117,50000,3566,47312,0,0,0,0,0.00,0.00,0.00,0.00
2016-08-18 05:40:00,1,47077,0,0.00,0,2,1,1,38960,50000,3643,49195,0,0,0,0,0.00,0.00,0.00,0.00
2016-08-18 05:50:00,1,48501,0,0.00,0,2,1,2,42649,50000,2270,50000,0,0,0,0,0.00,0.00,0.00,0.00
2016-08-18 06:00:00,0,46354,0,0.00,0,2,1,0,39412,50000,3938,47404,0,0,0,0,0.00,0.00,0.00,0.00
2016-08-18 06:10:00,0,48900,0,0.00,0,0,0,0,42701,50000,2176,49915,0,0,0,0,0.00,0.00,0.00,0.00
2016-08-18 06:20:00,0,44061,0,0.00,0,2,1,0,37198,50000,4448,44442,0,0,0,0,0.00,0.00,0.00,0.00
2016-08-18 06:30:00,0,49850,0,0.00,0,2,1,0,48498,50000,451,50000,0,0,0,0,0.00,0.00,0.00,0.00
2016-08-18 06:40:00,0,49467,0,0.00,0,0,0,0,45341,50000,1383,50000,0,0,0,0,0.00,0.00,0.00,0.00
2016-08-18 06:50:00,0,50000,0,0.00,0,0,0,0,50000,50000,0,50000,0,0,0,0,0.00,0.00,0.00,0.00
2016-08-18 07:00:00,0,47569,0,0.00,0,2,1,0,41266,50000,2650,48522,0,0,0,0,0.00,0.00,0.00,0.00
2016-08-18 07:10:00,1,46255,0,0.00,0,2,1,2,40323,50000,3334,47008,0,0,0,0,0.00,0.00,0.00,0.00
2016-08-18 07:20:00,0,49625,0,0.00,0,0,0,0,46249,50000,1125,50000,0,0,0,0,0.00,0.00,0.00,0.00
2016-08-18 07:30:00,1,47714,0,0.00,0,2,1,0,42589,50000,2872,49228,0,0,0,0,0.00,0.00,0.00,0.00
2016-08-18 07:40:00,2,47616,0,0.00,0,2,1,2,41775,50000,3228,49986,0,0,0,0,0.00,0.00,0.00,0.00
2016-08-18 07:50:00,0,49661,0,0.00,0,0,0,0,48725,50000,465,49964,0,0,0,0,0.00,0.00,0.00,0.00
2016-08-18 08:00:00,1,46194,0,0.00,0,2,1,0,34818,50000,5295,48397,0,0,0,0,0.00,0.00,0.00,0.00
2016-08-18 08:10:00,0,44183,0,0.00,0,0,0,0,34398,49795,4801,45159,0,0,0,0,0.00,0.00,0.00,0.00
2016-08-18 08:20:00,0,45073,0,0.00,0,0,0,0,35278,50000,5452,47080,0,0,0,0,0.00,0.00,0.00,0.00
2016-08-18 08:30:00,0,47668,0,0.00,0,0,0,0,42338,50000,2401,48188,0,0,0,0,0.00,0.00,0.00,0.00
2016-08-18 08:40:00,0,49257,0,0.00,0,0,0,0,46370,50000,1261,50000,0,0,0,0,0.00,0.00,0.00,0.00
2016-08-18 08:50:00,0,50000,0,0.00,0,0,0,0,50000,50000,0,50000,0,0,0,0,0.00,0.00,0.00,0.00
2016-08-18 09:00:00,0,49971,0,0.00,0,0,0,0,49713,50000,86,50000,0,0,0,0,0.00,0.00,0.00,0.00
2016-08-18 09:10:00,0,49958,0,0.00,0,0,0,0,49583,50000,125,50000,0,0,0,0,0.00,0.00,0.00,0.00
2016-08-18 09:20:00,0,50000,0,0.00,0,0,0,0,49997,50000,1,50000,0,0,0,0,0.00,0.00,0.00,0.00
2016-08-18 09:30:00,0,49904,0,0.00,0,0,0,0,49042,50000,287,50000,0,0,0,0,0.00,0.00,0.00,0.00
2016-08-18 09:40:00,0,49976,0,0.00,0,0,0,0,49758,50000,73,50000,0,0,0,0,0.00,0.00,0.00,0.00
2016-08-18 09:50:00,0,50000,0,0.00,0,0,0,0,50000,50000,0,50000,0,0,0,0,0.00,0.00,0.00,0.00
2016-08-18 10:00:00,0,49632,0,0.00,0,0,0,0,48127,50000,646,50000,0,0,0,0,0.00,0.00,0.00,0.00
2016-08-18 10:10:00,0,49861,0,0.00,0,0,0,0,48613,50000,416,50000,0,0,0,0,0.00,0.00,0.00,0.00
2016-08-18 10:20:00,0,49928,0,0.00,0,0,0,0,49282,50000,215,50000,0,0,0,0,0.00,0.00,0.00,0.00
2016-08-18 10:30:00,1,50000,0,0.00,0,2,1,0,50000,50000,0,50000,0,0,0,0,0.00,0.00,0.00,0.00
2016-08-18 10:40:00,0,50000,0,0.00,0,0,0,0,50000,50000,0,50000,0,0,0,0,0.00,0.00,0.00,0.00
2016-08-18 10:50:00,0,50000,0,0.00,0,0,0,0,50000,50000,0,50000,0,0,0,0,0.00,0.00,0.00,0.00
2016-08-18 11:00:00,0,50000,0,0.00,0,0,0,0,50000,50000,0,50000,0,0,0,0,0.00,0.00,0.00,0.00
2016-08-18 11:10:00,0,45206,0,0.00,0,0,0,0,26449,50000,7870,48876,0,0,0,0,0.00,0.00,0.00,0.00
2016-08-18 11:20:00,0,25899,0,0.00,0,0,0,0,10385,41741,9391,25241,0,0,0,0,0.00,0.00,0.00,0.00
2016-08-18 11:30:00,0,48294,0,0.00,0,0,0,0,38236,50000,3534,50000,0,0,0,0,0.00,0.00,0.00,0.00
2016-08-18 11:40:00,0,47645,0,0.00,0,0,0,0,26451,50000,7065,50000,0,0,0,0,0.00,0.00,0.00,0.00
2016-08-18 11:50:00,0,47842,0,0.00,0,0,0,0,33864,50000,4825,50000,0,0,0,0,0.00,0.00,0.00,0.00
2016-08-18 12:00:00,0,50000,0,0.00,0,0,0,0,50000,50000,0,50000,0,0,0,0,0.00,0.00,0.00,0.00
2016-08-18 12:10:00,2,49759,0,0.00,0,2,1,2,48504,50000,499,50000,0,0,0,0,0.00,0.00,0.00,0.00
2016-08-18 12:20:00,2,50000,0,0.00,2,2,0,2,50000,50000,0,50000,0,0,0,0,0.00,0.00,0.00,0.00
2016-08-18 12:30:00,2,50000,0,0.00,2,2,0,2,50000,50000,0,50000,0,0,0,0,0.00,0.00,0.00,0.00
2016-08-18 12:40:00,2,50000,0,0.00,0,2,1,2,50000,50000,0,50000,0,0,0,0,0.00,0.00,0.00,0.00
2016-08-18 12:50:00,2,50000,0,0.00,2,2,0,2,50000,50000,0,50000,0,0,0,0,0.00,0.00,0.00,0.00
2016-08-18 13:00:00,2,50000,0,0.00,2,2,0,2,50000,50000,0,50000,0,0,0,0,0.00,0.00,0.00,0.00
2016-08-18 13:10:00,2,50000,0,0.00,2,2,0,2,50000,50000,0,50000,0,0,0,0,0.00,0.00,0.00,0.00
2016-08-18 13:20:00,2,50000,0,0.00,2,2,0,2,50000,50000,0,50000,0,0,0,0,0.00,0.00,0.00,0.00
2016-08-18 13:30:00,2,50000,0,0.00,2,2,0,2,50000,50000,0,50000,0,0,0,0,0.00,0.00,0.00,0.00
2016-08-18 13:40:00,2,50000,0,0.00,2,2,0,2,50000,50000,0,50000,0,0,0,0,0.00,0.00,0.00,0.00
2016-08-18 13:50:00,2,50000,0,0.00,2,2,0,2,50000,50000,0,50000,0,0,0,0,0.00,0.00,0.00,0.00
2016-08-18 14:00:00,2,50000,0,0.00,2,2,0,2,50000,50000,0,50000,0,0,0,0,0.00,0.00,0.00,0.00
2016-08-18 14:10:00,2,50000,0,0.00,2,2,0,2,50000,50000,0,50000,0,0,0,0,0.00,0.00,0.00,0.00
2016-08-18 14:20:00,2,50000,0,0.00,2,2,0,2,50000,50000,0,50000,0,0,0,0,0.00,0.00,0.00,0.00
2016-08-18 14:30:00,2,47506,44,0.35,2,2,0,2,34454,50000,4729,50000,0,52,15,51,0.00,1.10,0.32,0.28
2016-08-18 14:40:00,2,49925,33,0.04,2,2,0,2,49246,50000,226,50000,0,61,27,51,0.00,0.25,0.08,0.00
2016-08-18 14:50:00,2,35115,57,2.34,2,2,0,2,14920,50000,12681,33179,51,61,5,61,0.00,5.65,1.70,2.12
2016-08-18 15:00:00,2,40635,37,0.76,2,2,0,2,17399,50000,12302,48372,0,61,30,61,0.00,3.35,1.15,0.03
2016-08-18 15:10:00,2,49964,0,0.00,2,2,0,2,49638,50000,109,50000,0,0,0,0,0.00,0.00,0.00,0.00
2016-08-18 15:20:00,2,50000,0,0.00,2,2,0,2,50000,50000,0,50000,0,0,0,0,0.00,0.00,0.00,0.00
2016-08-18 15:30:00,2,50000,0,0.00,2,2,0,2,50000,50000,0,50000,0,0,0,0,0.00,0.00,0.00,0.00
2016-08-18 15:40:00,2,49868,0,0.00,2,2,0,2,48682,50000,395,50000,0,0,0,0,0.00,0.00,0.00,0.00
2016-08-18 15:50:00,2,50000,0,0.00,2,2,0,2,50000,50000,0,50000,0,0,0,0,0.00,0.00,0.00,0.00
2016-08-18 16:00:00,2,50000,0,0.00,2,2,0,2,50000,50000,0,50000,0,0,0,0,0.00,0.00,0.00,0.00
2016-08-18 16:10:00,2,50000,0,0.00,2,2,0,2,50000,50000,0,50000,0,0,0,0,0.00,0.00,0.00,0.00
2016-08-18 16:20:00,2,50000,0,0.00,2,2,0,2,50000,50000,0,50000,0,0,0,0,0.00,0.00,0.00,0.00
2016-08-18 16:30:00,2,50000,0,0.00,2,2,0,2,50000,50000,0,50000,0,0,0,0,0.00,0.00,0.00,0.00
2016-08-18 16:40:00,2,50000,0,0.00,2,2,0,2,50000,50000,0,50000,0,0,0,0,0.00,0.00,0.00,0.00
2016-08-18 16:50:00,2,50000,0,0.00,2,2,0,2,50000,50000,0,50000,0,0,0,0,0.00,0.00,0.00,0.00
2016-08-18 17:00:00,2,50000,0,0.00,2,2,0,2,50000,50000,0,50000,0,0,0,0,0.00,0.00,0.00,0.00
2016-08-18 17:10:00,2,50000,0,0.00,2,2,0,2,50000,50000,0,50000,0,0,0,0,0.00,0.00,0.00,0.00
2016-08-18 17:20:00,2,49913,0,0.00,2,2,0,2,49131,50000,261,50000,0,0,0,0,0.00,0.00,0.00,0.00
2016-08-18 17:30:00,2,34470,0,0.00,2,2,0,2,15968,50000,13334,36231,0,0,0,0,0.00,0.00,0.00,0.00
2016-08-18 17:40:00,2,50000,0,0.00,2,2,0,2,50000,50000,0,50000,0,0,0,0,0.00,0.00,0.00,0.00
2016-08-18 17:50:00,2,50000,0,0.00,2,2,0,2,50000,50000,0,50000,0,0,0,0,0.00,0.00,0.00,0.00
2016-08-18 18:00:00,2,50000,0,0.00,2,2,0,2,50000,50000,0,50000,0,0,0,0,0.00,0.00,0.00,0.00
2016-08-18 18:10:00,2,50000,0,0.00,2,2,0,2,50000,50000,0,50000,0,0,0,0,0.00,0.00,0.00,0.00
2016-08-18 18:20:00,2,50000,0,0.00,2,2,0,2,50000,50000,0,50000,0,0,0,0,0.00,0.00,0.00,0.00
2016-08-18 18:30:00,2,50000,0,0.00,2,2,0,2,50000,50000,0,50000,0,0,0,0,0.00,0.00,0.00,0.00
2016-08-18 18:40:00,2,50000,0,0.00,2,2,0,2,50000,50000,0,50000,0,0,0,0,0.00,0.00,0.00,0.00
2016-08-18 18:50:00,2,50000,0,0.00,2,2,0,2,50000,50000,0,50000,0,0,0,0,0.00,0.00,0.00,0.00
2016-08-18 19:00:00,2,50000,0,0.00,2,2,0,2,50000,50000,0,50000,0,0,0,0,0.00,0.00,0.00,0.00
2016-08-18 19:10:00,2,50000,0,0.00,2,2,0,2,50000,50000,0,50000,0,0,0,0,0.00,0.00,0.00,0.00
2016-08-18 19:20:00,2,50000,0,0.00,2,2,0,2,50000,50000,0,50000,0,0,0,0,0.00,0.00,0.00,0.00
2016-08-18 19:30:00,2,49797,0,0.00,2,2,0,2,47971,50000,609,50000,0,0,0,0,0.00,0.00,0.00,0.00
2016-08-18 19:40:00,2,50000,0,0.00,2,2,0,2,50000,50000,0,50000,0,0,0,0,0.00,0.00,0.00,0.00
2016-08-18 19:50:00,2,49519,0,0.00,2,2,0,2,46936,50000,1006,50000,0,0,0,0,0.00,0.00,0.00,0.00
2016-08-18 20:00:00,2,50000,0,0.00,2,2,0,2,50000,50000,0,50000,0,0,0,0,0.00,0.00,0.00,0.00
2016-08-18 20:10:00,2,50000,0,0.00,2,2,0,2,50000,50000,0,50000,0,0,0,0,0.00,0.00,0.00,0.00
2016-08-18 20:20:00,2,50000,0,0.00,2,2,0,2,50000,50000,0,50000,0,0,0,0,0.00,0.00,0.00,0.00
2016-08-18 20:30:00,2,49374,0,0.00,2,2,0,2,44616,50000,1607,50000,0,0,0,0,0.00,0.00,0.00,0.00
2016-08-18 20:40:00,2,49449,0,0.00,2,2,0,2,46070,50000,1208,50000,0,0,0,0,0.00,0.00,0.00,0.00
2016-08-18 20:50:00,2,49706,0,0.00,2,2,0,2,47157,50000,850,50000,0,0,0,0,0.00,0.00,0.00,0.00
2016-08-18 21:00:00,2,50000,0,0.00,2,2,0,2,50000,50000,0,50000,0,0,0,0,0.00,0.00,0.00,0.00
2016-08-18 21:10:00,2,50000,0,0.00,2,2,0,2,50000,50000,0,50000,0,0,0,0,0.00,0.00,0.00,0.00
2016-08-18 21:20:00,2,49648,0,0.00,2,2,0,2,48212,50000,705,50000,0,0,0,0,0.00,0.00,0.00,0.00
2016-08-18 21:30:00,2,48444,0,0.00,2,2,0,2,42851,50000,2491,50000,0,0,0,0,0.00,0.00,0.00,0.00
2016-08-18 21:40:00,2,49180,0,0.00,2,2,0,2,45815,50000,1319,50000,0,0,0,0,0.00,0.00,0.00,0.00
2016-08-18 21:50:00,2,50000,0,0.00,2,2,0,2,50000,50000,0,50000,0,0,0,0,0.00,0.00,0.00,0.00
2016-08-18 22:00:00,2,49649,0,0.00,2,2,0,2,47612,50000,757,50000,0,0,0,0,0.00,0.00,0.00,0.00
2016-08-18 22:10:00,2,50000,0,0.00,2,2,0,2,50000,50000,0,50000,0,0,0,0,0.00,0.00,0.00,0.00
2016-08-18 22:20:00,2,48546,0,0.00,2,2,0,2,42703,50000,2238,49902,0,0,0,0,0.00,0.00,0.00,0.00
2016-08-18 22:30:00,2,49765,0,0.00,2,2,0,2,48523,50000,489,50000,0,0,0,0,0.00,0.00,0.00,0.00
2016-08-18 22:40:00,2,48193,0,0.00,2,2,0,2,46583,50000,1442,48082,0,0,0,0,0.00,0.00,0.00,0.00
2016-08-18 22:50:00,2,46816,0,0.00,2,2,0,2,38104,50000,3667,47546,0,0,0,0,0.00,0.00,0.00,0.00
2016-08-18 23:00:00,2,47264,0,0.00,2,2,0,2,41255,50000,3132,48464,0,0,0,0,0.00,0.00,0.00,0.00
2016-08-18 23:10:00,2,45033,0,0.00,2,2,0,2,38168,49014,3880,46564,0,0,0,0,0.00,0.00,0.00,0.00
2016-08-18 23:20:00,2,43603,0,0.00,2,2,0,2,27605,50000,7345,47306,0,0,0,0,0.00,0.00,0.00,0.00
2016-08-18 23:30:00,2,39123,0,0.00,2,2,0,2,30520,50000,7528,35301,0,0,0,0,0.00,0.00,0.00,0.00
2016-08-18 23:40:00,2,46890,0,0.00,2,2,0,2,35148,50000,4399,48718,0,0,0,0,0.00,0.00,0.00,0.00
2016-08-18 23:50:00,2,38064,0,0.00,2,2,0,2,26191,50000,7411,36998,0,0,0,0,0.00,0.00,0.00,0.00
